When you browse on this site, cookies collect data to enhance your experience and personalize the content and advertising you see.
Visit our Privacy Policy to learn more. By continuing to use the site, you agree to this use of cookies and data.
  • In Sweden
  • List of Countries
  • For 7 days
  • Water Temperature
  • Weather Map
  • Weather Widgets
  • user-avatar
    Login

    Hourly Weather Southaven

    Today, 2 June, Tuesday

    Time Temperature Precipitation Wind Pressure Humidity
    00:00 +21°C° 0 mm 1 mps 756 mmHg 63%
    01:00 +20°C° 0 mm 1 mps 756 mmHg 63%
    02:00 +20°C° 0 mm 1 mps 755 mmHg 63%
    03:00 +19°C° 0 mm 1 mps 755 mmHg 63%
    04:00 +20°C° 0 mm 1 mps 755 mmHg 64%
    05:00 +20°C° 0 mm 1 mps 756 mmHg 65%
    06:00 +22°C° 0 mm 1 mps 756 mmHg 71%
    07:00 +24°C° 0 mm 1 mps 756 mmHg 64%
    08:00 +26°C° 0 mm 1 mps 756 mmHg 58%
    09:00 +28°C° 0 mm 1 mps 756 mmHg 51%
    10:00 +29°C° 0 mm 1 mps 756 mmHg 49%
    11:00 +30°C° 0 mm 1 mps 756 mmHg 47%
    12:00 +31°C° 0 mm 1 mps 756 mmHg 45%
    13:00 +31°C° 0 mm 1 mps 755 mmHg 45%
    14:00 +32°C° 0 mm 2 mps 754 mmHg 46%
    15:00 +32°C° 0 mm 2 mps 754 mmHg 46%
    16:00 +31°C° 0 mm 1 mps 754 mmHg 51%
    17:00 +30°C° 0 mm 1 mps 754 mmHg 55%
    18:00 +30°C° 0 mm 1 mps 754 mmHg 60%
    19:00 +28°C° 0 mm 1 mps 754 mmHg 62%
    20:00 +27°C° 0 mm 1 mps 754 mmHg 64%
    21:00 +26°C° 0 mm 1 mps 754 mmHg 66%
    22:00 +25°C° 0 mm 1 mps 754 mmHg 69%
    23:00 +25°C° 0 mm 1 mps 754 mmHg 72%

    Tomorrow, 3 June, Wednesday

    Time Temperature Precipitation Wind Pressure Humidity
    00:00 +24°C° 0 mm 1 mps 754 mmHg 75%
    01:00 +24°C° 0 mm 1 mps 753 mmHg 78%
    02:00 +23°C° 0 mm 1 mps 753 mmHg 81%
    03:00 +23°C° 0 mm 1 mps 753 mmHg 83%
    04:00 +23°C° 0.4 mm 1 mps 753 mmHg 84%
    05:00 +24°C° 0.4 mm 1 mps 753 mmHg 85%
    06:00 +24°C° 0.4 mm 1 mps 753 mmHg 86%
    07:00 +25°C° 0.1 mm 2 mps 753 mmHg 85%
    08:00 +25°C° 0.1 mm 2 mps 753 mmHg 84%
    09:00 +26°C° 0.1 mm 3 mps 753 mmHg 84%
    10:00 +27°C° 0 mm 3 mps 753 mmHg 76%
    11:00 +29°C° 0 mm 3 mps 752 mmHg 68%
    12:00 +31°C° 0 mm 3 mps 752 mmHg 60%
    13:00 +31°C° 0.5 mm 3 mps 751 mmHg 60%
    14:00 +31°C° 0.5 mm 3 mps 751 mmHg 60%
    15:00 +33°C° 0.5 mm 3 mps 750 mmHg 60%
    16:00 +31°C° 0.9 mm 3 mps 750 mmHg 65%
    17:00 +30°C° 0.9 mm 3 mps 750 mmHg 70%
    18:00 +29°C° 0.9 mm 2 mps 749 mmHg 75%
    19:00 +28°C° 0.2 mm 2 mps 750 mmHg 78%
    20:00 +27°C° 0.2 mm 2 mps 750 mmHg 81%
    21:00 +25°C° 0.2 mm 2 mps 750 mmHg 84%
    22:00 +25°C° 0.6 mm 2 mps 750 mmHg 86%
    23:00 +24°C° 0.6 mm 2 mps 750 mmHg 88%

    Day after tomorrow, 4 June, Thursday

    Time Temperature Precipitation Wind Pressure Humidity
    00:00 +24°C° 0.6 mm 3 mps 749 mmHg 90%
    01:00 +24°C° 1.6 mm 3 mps 749 mmHg 91%
    02:00 +24°C° 1.6 mm 3 mps 749 mmHg 93%
    03:00 +22°C° 1.6 mm 3 mps 749 mmHg 94%
    04:00 +24°C° 0.6 mm 3 mps 749 mmHg 94%
    05:00 +24°C° 0.6 mm 3 mps 750 mmHg 94%
    06:00 +24°C° 0.6 mm 3 mps 750 mmHg 95%
    07:00 +25°C° 0.4 mm 3 mps 750 mmHg 90%
    08:00 +27°C° 0.4 mm 3 mps 750 mmHg 86%
    09:00 +28°C° 0.4 mm 3 mps 750 mmHg 81%
    10:00 +29°C° 1.6 mm 3 mps 750 mmHg 75%
    11:00 +30°C° 1.6 mm 3 mps 750 mmHg 70%
    12:00 +33°C° 1.6 mm 3 mps 749 mmHg 64%
    13:00 +33°C° 0.1 mm 3 mps 749 mmHg 63%
    14:00 +33°C° 0.1 mm 4 mps 749 mmHg 63%
    15:00 +33°C° 0.1 mm 4 mps 749 mmHg 63%
    16:00 +32°C° 0.1 mm 4 mps 749 mmHg 66%
    17:00 +31°C° 0.1 mm 3 mps 749 mmHg 70%
    18:00 +30°C° 0.1 mm 3 mps 749 mmHg 74%
    19:00 +29°C° 0.1 mm 3 mps 749 mmHg 77%
    20:00 +27°C° 0.1 mm 2 mps 749 mmHg 80%
    21:00 +26°C° 0.1 mm 2 mps 750 mmHg 84%
    22:00 +26°C° 0 mm 2 mps 750 mmHg 85%
    23:00 +25°C° 0 mm 2 mps 750 mmHg 87%

    5 June, Friday

    Time Temperature Precipitation Wind Pressure Humidity
    00:00 +25°C° 0 mm 3 mps 750 mmHg 89%
    01:00 +24°C° 0 mm 3 mps 750 mmHg 89%
    02:00 +24°C° 0 mm 3 mps 750 mmHg 89%
    03:00 +22°C° 0 mm 3 mps 750 mmHg 90%
    04:00 +24°C° 0 mm 3 mps 750 mmHg 90%
    05:00 +24°C° 0 mm 3 mps 751 mmHg 91%
    06:00 +24°C° 0 mm 3 mps 751 mmHg 91%
    07:00 +26°C° 0 mm 3 mps 751 mmHg 86%
    08:00 +28°C° 0 mm 3 mps 751 mmHg 81%
    09:00 +29°C° 0 mm 3 mps 752 mmHg 75%
    10:00 +31°C° 0 mm 3 mps 751 mmHg 70%
    11:00 +33°C° 0 mm 3 mps 751 mmHg 66%
    12:00 +34°C° 0 mm 3 mps 751 mmHg 61%
    13:00 +34°C° 0.2 mm 2 mps 750 mmHg 60%
    14:00 +35°C° 0.2 mm 2 mps 750 mmHg 60%
    15:00 +35°C° 0.2 mm 2 mps 750 mmHg 59%
    16:00 +34°C° 0.1 mm 2 mps 750 mmHg 63%
    17:00 +32°C° 0.1 mm 2 mps 750 mmHg 66%
    18:00 +32°C° 0.1 mm 2 mps 749 mmHg 70%
    19:00 +30°C° 0 mm 2 mps 750 mmHg 75%
    20:00 +29°C° 0 mm 2 mps 750 mmHg 79%
    21:00 +27°C° 0 mm 2 mps 750 mmHg 83%
    22:00 +27°C° 0 mm 2 mps 750 mmHg 84%
    23:00 +26°C° 0 mm 2 mps 750 mmHg 85%

    6 June, Saturday

    Time Temperature Precipitation Wind Pressure Humidity
    00:00 +26°C° 0 mm 2 mps 750 mmHg 86%
    01:00 +25°C° 0.3 mm 2 mps 750 mmHg 87%
    02:00 +25°C° 0.3 mm 2 mps 750 mmHg 89%
    03:00 +25°C° 0.3 mm 2 mps 750 mmHg 91%
    04:00 +25°C° 0 mm 1 mps 750 mmHg 91%
    05:00 +25°C° 0 mm 1 mps 750 mmHg 90%
    06:00 +26°C° 0 mm 1 mps 751 mmHg 90%
    07:00 +27°C° 0 mm 1 mps 751 mmHg 83%
    08:00 +29°C° 0 mm 1 mps 751 mmHg 77%
    09:00 +31°C° 0 mm 1 mps 751 mmHg 71%
    10:00 +32°C° 0.2 mm 1 mps 751 mmHg 65%
    11:00 +34°C° 0.2 mm 1 mps 751 mmHg 59%
    12:00 +35°C° 0.2 mm 1 mps 750 mmHg 53%
    13:00 +35°C° 0.2 mm 1 mps 750 mmHg 54%
    14:00 +34°C° 0.2 mm 1 mps 749 mmHg 55%
    15:00 +35°C° 0.2 mm 2 mps 749 mmHg 56%
    16:00 +34°C° 0.2 mm 2 mps 749 mmHg 62%
    17:00 +32°C° 0.2 mm 2 mps 748 mmHg 68%
    18:00 +31°C° 0.2 mm 3 mps 748 mmHg 74%
    19:00 +30°C° 0 mm 3 mps 749 mmHg 77%
    20:00 +29°C° 0 mm 3 mps 749 mmHg 80%
    21:00 +27°C° 0 mm 3 mps 749 mmHg 84%
    22:00 +27°C° 0 mm 3 mps 749 mmHg 85%
    23:00 +26°C° 0 mm 3 mps 749 mmHg 86%

    7 June, Sunday

    Time Temperature Precipitation Wind Pressure Humidity
    00:00 +26°C° 0 mm 3 mps 749 mmHg 87%
    01:00 +25°C° 0 mm 3 mps 749 mmHg 89%
    02:00 +25°C° 0 mm 3 mps 749 mmHg 91%
    03:00 +24°C° 0 mm 3 mps 748 mmHg 92%
    04:00 +25°C° 0 mm 3 mps 749 mmHg 92%
    05:00 +25°C° 0 mm 3 mps 749 mmHg 92%
    06:00 +25°C° 0 mm 2 mps 749 mmHg 91%
    07:00 +26°C° 0 mm 3 mps 749 mmHg 86%
    08:00 +27°C° 0 mm 3 mps 749 mmHg 81%
    09:00 +29°C° 0 mm 4 mps 749 mmHg 77%
    10:00 +30°C° 0 mm 4 mps 749 mmHg 73%
    11:00 +30°C° 0 mm 5 mps 749 mmHg 69%
    12:00 +32°C° 0 mm 5 mps 748 mmHg 65%
    13:00 +33°C° 0 mm 5 mps 748 mmHg 64%
    14:00 +33°C° 0 mm 5 mps 747 mmHg 63%
    15:00 +33°C° 0 mm 5 mps 747 mmHg 62%
    16:00 +32°C° 0 mm 5 mps 747 mmHg 66%
    17:00 +30°C° 0 mm 4 mps 747 mmHg 71%
    18:00 +29°C° 0 mm 4 mps 747 mmHg 75%
    19:00 +29°C° 0 mm 4 mps 747 mmHg 78%
    20:00 +28°C° 0 mm 3 mps 747 mmHg 80%
    21:00 +27°C° 0 mm 3 mps 747 mmHg 82%
    22:00 +27°C° 0 mm 4 mps 747 mmHg 82%
    23:00 +26°C° 0 mm 4 mps 747 mmHg 81%
    Show more